Stations météo

réclame
Mon MeteoGroup
Ingolstadt (Flugplatz), Allemagne (10860): Température de l'air & dewpoint: 19.09.2018 09:00:00 - 25.09.2018 09:00:00 (CEST)Ingolstadt (Flugplatz), Allemagne (10860): Vitesse du vent & gusts: 19.09.2018 09:00:00 - 25.09.2018 09:00:00 (CEST)Ingolstadt (Flugplatz), Allemagne (10860): Direction du vent: 19.09.2018 09:00:00 - 25.09.2018 09:00:00 (CEST)Ingolstadt (Flugplatz), Allemagne (10860): reduced air pressure: 19.09.2018 09:00:00 - 25.09.2018 09:00:00 (CEST)Ingolstadt (Flugplatz), Allemagne (10860): visibility: 19.09.2018 09:00:00 - 25.09.2018 09:00:00 (CEST)
Date & Time tt [°C] td [°C] ff [km/h] ff [knt] fx [km/h] fx [knt] dd ppp [hPa] vv [km]
25.09.2018 09:00:00 5,6 3,8 7 4 - - WSW 1039,1 60
25.09.2018 08:00:00 2,3 1,2 4 2 - - N 1038,9 40
25.09.2018 07:00:00 1,7 0,7 4 2 - - WSW 1038,7 30
25.09.2018 06:00:00 2,8 1,7 4 2 - - SW 1038,1 40
25.09.2018 05:00:00 2,9 1,8 7 4 - - SSW 1037,8 7
25.09.2018 04:00:00 4,3 2,3 4 2 - - WSW 1037,1 8
25.09.2018 03:00:00 5,6 3,5 4 2 - - W 1036,8 8
25.09.2018 02:00:00 6,7 3,6 11 6 - - W 1036,4 7
25.09.2018 01:00:00 7,0 3,3 11 6 - - W 1035,9 7
25.09.2018 00:00:00 7,0 2,9 11 6 - - W 1035,5 8
24.09.2018 23:00:00 5,3 1,7 7 4 - - WSW 1035,5 8
24.09.2018 22:00:00 6,7 2,0 7 4 - - W 1034,8 8
24.09.2018 21:00:00 7,2 2,3 7 4 - - SSW 1034,3 8
24.09.2018 20:00:00 8,9 1,6 7 4 - - W 1033,3 8
24.09.2018 19:00:00 11,7 0,6 14 8 - - WNW 1032,2 60
24.09.2018 18:00:00 12,5 -0,2 22 12 - - NW 1031,8 60
24.09.2018 17:00:00 13,3 0,4 18 10 - - NW 1031,6 70
24.09.2018 16:00:00 13,5 0,2 25 14 - - WNW 1031,7 70
24.09.2018 15:00:00 13,3 1,2 25 14 - - WNW 1031,5 70
24.09.2018 14:00:00 12,9 0,9 25 14 - - NW 1031,9 70
24.09.2018 13:00:00 12,1 1,8 29 16 - - WNW 1032,2 70
24.09.2018 12:00:00 11,0 3,5 25 14 - - NW 1032,2 60
24.09.2018 11:00:00 10,2 3,4 25 14 - - WNW 1032,1 60
24.09.2018 10:00:00 9,7 4,0 24 13 - - NW 1031,2 10
24.09.2018 09:00:00 8,6 5,0 18 10 - - WNW 1030,2 60
24.09.2018 08:00:00 7,7 4,8 14 8 - - NW 1028,9 50
24.09.2018 07:00:00 7,6 4,9 14 8 - - NW 1027,6 45
24.09.2018 06:00:00 7,9 5,1 14 8 - - NW 1027,0 40
24.09.2018 05:00:00 8,7 5,1 18 10 - - NW 1026,1 8
24.09.2018 04:00:00 9,0 5,5 22 12 - - NNW 1025,4 8
24.09.2018 03:00:00 8,6 6,7 22 12 - - NNW 1024,2 8
24.09.2018 02:00:00 10,0 7,3 18 10 - - NW 1022,5 8
24.09.2018 01:00:00 9,8 7,7 22 12 54 29 NNW 1020,9 7
24.09.2018 00:00:00 11,7 8,5 29 16 61 33 NNW 1017,2 8
23.09.2018 23:00:00 13,5 11,4 32 18 - - WNW 1013,0 3,9
23.09.2018 22:00:00 14,8 13,3 29 16 54 29 WNW 1010,9 3,5
23.09.2018 21:00:00 15,0 13,7 25 14 94 51 W 1009,6 3,3
23.09.2018 20:00:00 24,2 13,9 52 28 - - W 1004,2 10
23.09.2018 19:00:00 24,5 14,5 36 19 72 39 W 1004,0 9
23.09.2018 18:00:00 25,0 14,8 36 19 76 41 W 1004,4 9
23.09.2018 17:00:00 24,7 15,6 32 18 - - WSW 1006,0 10
23.09.2018 16:00:00 23,7 15,8 29 16 54 29 WSW 1007,8 11
23.09.2018 15:00:00 23,1 17,2 22 12 - - WSW 1009,3 9
23.09.2018 14:00:00 20,7 17,6 14 8 - - WSW 1011,3 9
23.09.2018 13:00:00 18,7 15,8 11 6 - - WSW 1013,4 8
23.09.2018 12:00:00 18,8 15,4 22 12 - - WSW 1013,9 50
23.09.2018 11:00:00 15,7 14,6 11 6 - - WSW 1014,9 8
23.09.2018 10:00:00 13,8 13,3 7 4 - - SW 1015,9 2,1
23.09.2018 09:00:00 12,3 11,8 11 6 - - S 1016,5 4,8
23.09.2018 08:00:00 11,4 11,1 11 6 - - SSE 1017,2 6
23.09.2018 07:00:00 11,2 10,8 7 4 - - S 1018,0 3,3
23.09.2018 06:00:00 11,4 10,6 7 4 - - SSW 1018,9 2,8
23.09.2018 05:00:00 11,6 10,0 11 6 - - SW 1020,0 8
23.09.2018 04:00:00 11,6 9,6 7 4 - - SW 1020,4 7
23.09.2018 03:00:00 11,7 9,8 7 4 - - S 1021,0 8
23.09.2018 02:00:00 11,7 10,6 7 4 - - SSW 1021,2 8
23.09.2018 01:00:00 12,2 10,1 4 2 - - N 1021,1 8
23.09.2018 00:00:00 12,2 10,0 4 2 - - N 1020,8 9
22.09.2018 23:00:00 12,1 8,7 4 2 - - N 1021,1 8
22.09.2018 22:00:00 12,6 8,2 4 2 - - N 1020,9 9
22.09.2018 21:00:00 13,1 8,3 7 4 - - S 1021,1 10
22.09.2018 20:00:00 14,8 5,2 4 2 - - S 1020,3 60
22.09.2018 19:00:00 16,1 3,1 7 4 - - W 1020,3 60
22.09.2018 18:00:00 16,9 2,2 14 8 - - W 1020,4 11
22.09.2018 17:00:00 17,8 2,2 18 10 - - W 1020,6 10
22.09.2018 16:00:00 17,5 2,9 18 10 - - WNW 1021,1 10
22.09.2018 15:00:00 16,9 3,4 14 8 - - W 1021,8 11
22.09.2018 14:00:00 16,3 4,3 18 10 - - WNW 1023,3 9
22.09.2018 13:00:00 15,3 4,5 18 10 - - W 1023,6 9
22.09.2018 12:00:00 14,7 5,0 22 12 - - W 1024,1 10
22.09.2018 11:00:00 13,7 6,0 14 8 - - W 1024,4 10
22.09.2018 10:00:00 12,5 7,1 11 6 - - W 1024,8 75
22.09.2018 09:00:00 11,9 7,1 11 6 - - W 1024,6 75
22.09.2018 08:00:00 10,8 7,2 11 6 - - WSW 1024,1 9
22.09.2018 07:00:00 10,7 7,4 7 4 - - SW 1023,9 9
22.09.2018 06:00:00 9,8 6,8 11 6 - - SW 1023,7 9
22.09.2018 05:00:00 10,8 7,0 7 4 - - SW 1023,6 9
22.09.2018 04:00:00 11,4 7,1 11 6 - - WSW 1023,2 9
22.09.2018 03:00:00 12,5 7,9 11 6 - - W 1022,3 9
22.09.2018 02:00:00 12,4 8,6 14 8 - - W 1021,9 9
22.09.2018 01:00:00 12,8 8,9 18 10 - - W 1020,8 8
22.09.2018 00:00:00 12,9 9,1 18 10 - - WNW 1019,9 9
21.09.2018 23:00:00 13,1 8,5 14 8 - - WNW 1018,9 9
21.09.2018 22:00:00 13,3 9,1 22 12 - - W 1017,8 9
21.09.2018 21:00:00 15,6 10,6 29 16 61 33 WNW 1016,1 10
21.09.2018 20:00:00 20,2 15,1 18 10 - - WSW 1011,6 9
21.09.2018 19:00:00 20,6 14,8 18 10 50 27 W 1010,6 50
21.09.2018 18:00:00 23,4 12,4 29 16 61 33 NW 1010,1 50
21.09.2018 17:00:00 27,3 10,7 22 12 - - WSW 1008,2 60
21.09.2018 16:00:00 28,2 10,2 29 16 47 25 W 1008,5 60
21.09.2018 15:00:00 28,9 11,3 25 14 - - W 1008,9 60
21.09.2018 14:00:00 28,4 11,5 18 10 - - SW 1009,7 70
21.09.2018 13:00:00 26,3 12,9 14 8 - - WSW 1010,8 60
21.09.2018 12:00:00 24,1 13,8 7 4 - - W 1011,8 35
21.09.2018 11:00:00 21,6 13,9 7 4 - - SW 1012,7 20
21.09.2018 10:00:00 18,5 13,5 4 2 - - WSW 1013,6 15
21.09.2018 09:00:00 15,2 13,5 4 2 - - SSE 1014,2 4,5
21.09.2018 08:00:00 11,2 10,3 2 1 - - S 1015,0 0,8
21.09.2018 07:00:00 10,3 10,0 0 0 - - N 1014,9 8
21.09.2018 06:00:00 10,1 9,8 4 2 - - S 1015,2 18
21.09.2018 05:00:00 12,4 11,8 4 2 - - N 1015,2 0,6
21.09.2018 04:00:00 12,5 12,0 4 2 - - ENE 1015,4 0,1
21.09.2018 03:00:00 13,2 12,4 4 2 - - E 1015,6 6
21.09.2018 02:00:00 14,4 12,8 7 4 - - ENE 1015,8 3,4
21.09.2018 01:00:00 14,5 13,2 7 4 - - ENE 1016,3 8
21.09.2018 00:00:00 15,3 13,7 7 4 - - ENE 1016,7 3,9
20.09.2018 23:00:00 16,1 14,5 0 0 - - N 1017,0 9
20.09.2018 22:00:00 17,6 14,4 4 2 - - N 1017,0 10
20.09.2018 21:00:00 18,8 15,0 0 0 - - N 1017,0 10
20.09.2018 20:00:00 20,5 14,4 4 2 - - SSE 1016,7 13
20.09.2018 19:00:00 24,9 13,0 7 4 - - SE 1016,0 55
20.09.2018 18:00:00 26,9 11,3 7 4 - - SSE 1016,2 55
20.09.2018 17:00:00 27,4 11,1 7 4 - - SSE 1016,4 55
20.09.2018 16:00:00 28,0 11,4 7 4 - - SSE 1016,9 60
20.09.2018 15:00:00 27,1 11,5 7 4 - - S 1017,5 50
20.09.2018 14:00:00 26,5 14,0 7 4 - - ESE 1018,3 45
20.09.2018 13:00:00 25,0 15,1 7 4 - - ENE 1019,3 45
20.09.2018 12:00:00 23,0 15,0 4 2 - - SSE 1020,2 35
20.09.2018 11:00:00 21,1 14,6 4 2 - - S 1021,0 30
20.09.2018 10:00:00 18,7 14,4 4 2 - - N 1021,5 25
20.09.2018 09:00:00 15,7 14,5 4 2 - - N 1021,7 16
20.09.2018 08:00:00 12,5 12,0 2 1 - - WNW 1022,3 5
20.09.2018 07:00:00 12,2 11,8 0 0 - - N 1021,8 8
20.09.2018 06:00:00 12,6 12,2 4 2 - - NE 1021,6 15
20.09.2018 05:00:00 12,2 11,6 4 2 - - SSE 1021,8 5
20.09.2018 04:00:00 12,5 11,9 4 2 - - S 1021,7 0,2
20.09.2018 03:00:00 13,0 12,2 0 0 - - N 1021,6 0,1
20.09.2018 02:00:00 13,7 13,1 4 2 - - ENE 1021,5 0,2
20.09.2018 01:00:00 14,0 13,4 0 0 - - N 1021,5 0,9
20.09.2018 00:00:00 15,1 14,4 4 2 - - NE 1021,6 1,8
19.09.2018 23:00:00 15,4 13,8 4 2 - - N 1021,4 8
19.09.2018 22:00:00 16,7 15,3 0 0 - - N 1021,2 9
19.09.2018 21:00:00 17,5 15,3 4 2 - - SSE 1020,9 9
19.09.2018 20:00:00 19,6 15,1 0 0 - - N 1020,2 9
19.09.2018 19:00:00 23,1 14,4 4 2 - - ESE 1019,5 60
19.09.2018 18:00:00 24,9 12,8 4 2 - - N 1019,1 60
19.09.2018 17:00:00 25,0 12,7 7 4 - - N 1019,3 60
19.09.2018 16:00:00 25,0 13,0 7 4 - - SE 1019,5 60
19.09.2018 15:00:00 24,7 13,4 7 4 - - E 1019,7 60
19.09.2018 14:00:00 24,4 11,9 4 2 - - ESE 1020,1 50
19.09.2018 13:00:00 22,9 14,2 7 4 - - SSW 1020,6 50
19.09.2018 12:00:00 19,9 15,1 11 6 - - W 1021,7 40
19.09.2018 11:00:00 19,8 15,8 4 2 - - NNW 1021,7 40
19.09.2018 10:00:00 17,4 15,7 7 4 - - NW 1021,7 35
19.09.2018 09:00:00 15,9 15,2 7 4 - - SW 1021,5 35

tt = Température de l'air
td = dewpoint
ff = Vitesse du vent
fx = gusts
dd = Direction du vent
ppp = reduced air pressure
vv = visibility

stations d'obs. à proximité